Location: Newark
(25.4297°S, 49.2719°W)
Time: 10:53:51
(UTC+00:00)

Vanguard 1 Rocket - Pass Details

Date: 23 November 2019
Orbit: 650 x 4226 km, 34.3° (Epoch: 14 December)

Event Time Altitude Azimuth Distance (km) Brightness Sun altitude
Rises 16:17:20 0° 292° (WNW) 6,066 11.8 72.3°
Reaches altitude 10° 16:20:35 10° 291° (WNW) 5,426 11.8 71.6°
Maximum altitude 16:39:25 83° 203° (SSW) 3,887 12.2 67.4°
Drops below altitude 10° 17:06:29 10° 112° (ESE) 7,276 11.8 61.3°
Sets 17:11:48 0° 111° (ESE) 8,093 11.9 60.1°
